Year,Month,Day,Hour,Minute,Value (Times are PST for windgust in km/hr)
2015,08,29,00,00,1.60
2015,08,29,00,01,4.80
2015,08,29,00,02,3.20
2015,08,29,00,03,3.20
2015,08,29,00,04,6.40
2015,08,29,00,05,3.20
2015,08,29,00,06,1.60
2015,08,29,00,07,6.40
2015,08,29,00,08,6.40
2015,08,29,00,09,6.40
2015,08,29,00,10,1.60
2015,08,29,00,11,1.60
2015,08,29,00,14,1.60
2015,08,29,00,40,1.60
2015,08,29,00,41,1.60
2015,08,29,00,42,3.20
2015,08,29,00,51,3.20
2015,08,29,00,52,6.40
2015,08,29,00,53,1.60
2015,08,29,00,54,3.20
2015,08,29,00,55,3.20
2015,08,29,00,56,6.40
2015,08,29,00,57,3.20
2015,08,29,00,58,3.20
2015,08,29,01,06,1.60
2015,08,29,01,13,1.60
2015,08,29,01,15,1.60
2015,08,29,01,16,1.60
2015,08,29,01,17,1.60
2015,08,29,01,18,1.60
2015,08,29,01,19,1.60
2015,08,29,01,20,1.60
2015,08,29,01,21,1.60
2015,08,29,01,22,1.60
2015,08,29,01,23,1.60
2015,08,29,01,24,1.60
2015,08,29,01,25,1.60
2015,08,29,01,26,1.60
2015,08,29,01,27,1.60
2015,08,29,01,28,1.60
2015,08,29,01,29,3.20
2015,08,29,01,30,4.80
2015,08,29,01,31,3.20
2015,08,29,01,32,3.20
2015,08,29,01,33,8.10
2015,08,29,01,34,6.40
2015,08,29,01,35,3.20
2015,08,29,01,36,3.20
2015,08,29,01,37,9.60
2015,08,29,01,38,6.40
2015,08,29,01,39,6.40
2015,08,29,01,40,6.40
2015,08,29,01,41,3.20
2015,08,29,01,42,6.40
2015,08,29,01,43,6.40
2015,08,29,01,44,8.10
2015,08,29,01,45,8.10
2015,08,29,01,46,6.40
2015,08,29,01,47,6.40
2015,08,29,01,48,3.20
2015,08,29,01,49,3.20
2015,08,29,01,50,6.40
2015,08,29,01,51,9.60
2015,08,29,01,52,8.10
2015,08,29,01,53,9.60
2015,08,29,01,54,4.80
2015,08,29,01,55,4.80
2015,08,29,01,56,4.80
2015,08,29,01,57,8.10
2015,08,29,01,58,9.60
2015,08,29,01,59,8.10
2015,08,29,02,00,11.30
2015,08,29,02,01,9.60
2015,08,29,02,02,9.60
2015,08,29,02,03,9.60
2015,08,29,02,04,9.60
2015,08,29,02,05,9.60
2015,08,29,02,06,11.30
2015,08,29,02,07,12.90
2015,08,29,02,08,17.70
2015,08,29,02,09,20.90
2015,08,29,02,10,20.90
2015,08,29,02,11,11.30
2015,08,29,02,12,14.50
2015,08,29,02,13,17.70
2015,08,29,02,14,9.60
2015,08,29,02,15,14.50
2015,08,29,02,16,17.70
2015,08,29,02,17,12.90
2015,08,29,02,18,12.90
2015,08,29,02,19,9.60
2015,08,29,02,20,14.50
2015,08,29,02,21,17.70
2015,08,29,02,22,9.60
2015,08,29,02,23,17.70
2015,08,29,02,24,6.40
2015,08,29,02,25,12.90
2015,08,29,02,26,24.20
2015,08,29,02,27,17.70
2015,08,29,02,28,11.30
2015,08,29,02,29,16.10
2015,08,29,02,30,11.30
2015,08,29,02,31,11.30
2015,08,29,02,32,14.50
2015,08,29,02,33,17.70
2015,08,29,02,34,17.70
2015,08,29,02,35,16.10
2015,08,29,02,36,11.30
2015,08,29,02,37,19.30
2015,08,29,02,38,20.90
2015,08,29,02,39,19.30
2015,08,29,02,40,12.90
2015,08,29,02,41,12.90
2015,08,29,02,42,19.30
2015,08,29,02,43,11.30
2015,08,29,02,44,14.50
2015,08,29,02,45,14.50
2015,08,29,02,46,22.50
2015,08,29,02,47,14.50
2015,08,29,02,48,19.30
2015,08,29,02,49,11.30
2015,08,29,02,50,12.90
2015,08,29,02,51,16.10
2015,08,29,02,52,12.90
2015,08,29,02,53,9.60
2015,08,29,02,54,16.10
2015,08,29,02,55,16.10
2015,08,29,02,56,16.10
2015,08,29,02,57,9.60
2015,08,29,02,58,11.30
2015,08,29,02,59,12.90
2015,08,29,03,00,14.50
2015,08,29,03,01,12.90
2015,08,29,03,02,19.30
2015,08,29,03,06,8.10
2015,08,29,03,07,9.60
2015,08,29,03,08,14.50
2015,08,29,03,09,11.30
2015,08,29,03,10,9.60
2015,08,29,03,11,9.60
2015,08,29,03,12,11.30
2015,08,29,03,13,20.90
2015,08,29,03,14,17.70
2015,08,29,03,15,12.90
2015,08,29,03,16,9.60
2015,08,29,03,17,12.90
2015,08,29,03,18,12.90
2015,08,29,03,19,16.10
2015,08,29,03,20,11.30
2015,08,29,03,21,12.90
2015,08,29,03,22,16.10
2015,08,29,03,23,11.30
2015,08,29,03,24,11.30
2015,08,29,03,25,16.10
2015,08,29,03,26,11.30
2015,08,29,03,27,12.90
2015,08,29,03,28,11.30
2015,08,29,03,29,12.90
2015,08,29,03,30,9.60
2015,08,29,03,31,9.60
2015,08,29,03,32,11.30
2015,08,29,03,33,6.40
2015,08,29,03,34,14.50
2015,08,29,03,35,9.60
2015,08,29,03,36,8.10
2015,08,29,03,37,3.20
2015,08,29,03,38,6.40
2015,08,29,03,39,3.20
2015,08,29,03,40,3.20
2015,08,29,03,41,6.40
2015,08,29,03,42,3.20
2015,08,29,03,43,6.40
2015,08,29,03,44,9.60
2015,08,29,03,45,9.60
2015,08,29,03,46,8.10
2015,08,29,03,47,8.10
2015,08,29,03,48,9.60
2015,08,29,03,49,17.70
2015,08,29,03,50,17.70
2015,08,29,03,51,17.70
2015,08,29,03,52,17.70
2015,08,29,03,53,16.10
2015,08,29,03,54,16.10
2015,08,29,03,55,16.10
2015,08,29,03,56,17.70
2015,08,29,03,57,17.70
2015,08,29,03,58,17.70
2015,08,29,03,59,20.90
2015,08,29,04,00,12.90
2015,08,29,04,01,14.50
2015,08,29,04,02,14.50
2015,08,29,04,03,12.90
2015,08,29,04,04,9.60
2015,08,29,04,05,9.60
2015,08,29,04,06,11.30
2015,08,29,04,07,14.50
2015,08,29,04,08,11.30
2015,08,29,04,09,17.70
2015,08,29,04,10,20.90
2015,08,29,04,11,16.10
2015,08,29,04,12,12.90
2015,08,29,04,13,17.70
2015,08,29,04,14,17.70
2015,08,29,04,15,11.30
2015,08,29,04,16,3.20
2015,08,29,04,17,19.30
2015,08,29,04,18,17.70
2015,08,29,04,19,8.10
2015,08,29,04,20,16.10
2015,08,29,04,21,16.10
2015,08,29,04,22,12.90
2015,08,29,04,23,14.50
2015,08,29,04,24,16.10
2015,08,29,04,25,16.10
2015,08,29,04,26,9.60
2015,08,29,04,27,8.10
2015,08,29,04,28,14.50
2015,08,29,04,29,11.30
2015,08,29,04,30,9.60
2015,08,29,04,31,14.50
2015,08,29,04,32,14.50
2015,08,29,04,33,14.50
2015,08,29,04,34,11.30
2015,08,29,04,35,9.60
2015,08,29,04,36,11.30
2015,08,29,04,37,12.90
2015,08,29,04,38,22.50
2015,08,29,04,39,16.10
2015,08,29,04,40,16.10
2015,08,29,04,41,8.10
2015,08,29,04,42,11.30
2015,08,29,04,43,9.60
2015,08,29,04,44,17.70
2015,08,29,04,45,9.60
2015,08,29,04,46,11.30
2015,08,29,04,47,11.30
2015,08,29,04,48,8.10
2015,08,29,04,49,9.60
2015,08,29,04,50,4.80
2015,08,29,04,51,12.90
2015,08,29,04,52,14.50
2015,08,29,04,53,11.30
2015,08,29,04,54,6.40
2015,08,29,04,55,8.10
2015,08,29,04,56,8.10
2015,08,29,04,57,8.10
2015,08,29,04,58,11.30
2015,08,29,04,59,11.30
2015,08,29,05,00,8.10
2015,08,29,05,01,11.30
2015,08,29,05,02,4.80
2015,08,29,05,03,6.40
2015,08,29,05,04,6.40
2015,08,29,05,05,8.10
2015,08,29,05,06,8.10
2015,08,29,05,07,12.90
2015,08,29,05,08,8.10
2015,08,29,05,09,9.60
2015,08,29,05,10,11.30
2015,08,29,05,11,9.60
2015,08,29,05,12,11.30
2015,08,29,05,13,6.40
2015,08,29,05,14,8.10
2015,08,29,05,15,9.60
2015,08,29,05,16,8.10
2015,08,29,05,17,8.10
2015,08,29,05,18,9.60
2015,08,29,05,19,16.10
2015,08,29,05,20,8.10
2015,08,29,05,21,9.60
2015,08,29,05,22,12.90
2015,08,29,05,23,11.30
2015,08,29,05,24,8.10
2015,08,29,05,25,9.60
2015,08,29,05,26,9.60
2015,08,29,05,27,11.30
2015,08,29,05,28,14.50
2015,08,29,05,29,16.10
2015,08,29,05,30,12.90
2015,08,29,05,31,16.10
2015,08,29,05,32,11.30
2015,08,29,05,33,17.70
2015,08,29,05,34,9.60
2015,08,29,05,35,12.90
2015,08,29,05,36,9.60
2015,08,29,05,37,17.70
2015,08,29,05,38,17.70
2015,08,29,05,39,16.10
2015,08,29,05,40,9.60
2015,08,29,05,41,16.10
2015,08,29,05,42,11.30
2015,08,29,05,43,12.90
2015,08,29,05,44,11.30
2015,08,29,05,45,9.60
2015,08,29,05,46,14.50
2015,08,29,05,47,11.30
2015,08,29,05,48,11.30
2015,08,29,05,49,12.90
2015,08,29,05,50,9.60
2015,08,29,05,51,11.30
2015,08,29,05,52,14.50
2015,08,29,05,53,14.50
2015,08,29,05,54,14.50
2015,08,29,05,55,12.90
2015,08,29,05,56,12.90
2015,08,29,05,57,17.70
2015,08,29,05,58,17.70
2015,08,29,05,59,12.90
2015,08,29,06,00,24.20
2015,08,29,06,01,20.90
2015,08,29,06,02,17.70
2015,08,29,06,03,9.60
2015,08,29,06,04,22.50
2015,08,29,06,05,11.30
2015,08,29,06,06,16.10
2015,08,29,06,07,9.60
2015,08,29,06,08,14.50
2015,08,29,06,09,17.70
2015,08,29,06,10,17.70
2015,08,29,06,11,20.90
2015,08,29,06,12,19.30
2015,08,29,06,13,16.10
2015,08,29,06,14,19.30
2015,08,29,06,15,17.70
2015,08,29,06,16,9.60
2015,08,29,06,17,6.40
2015,08,29,06,18,4.80
2015,08,29,06,19,11.30
2015,08,29,06,20,22.50
2015,08,29,06,21,16.10
2015,08,29,06,22,12.90
2015,08,29,06,23,8.10
2015,08,29,06,24,4.80
2015,08,29,06,25,8.10
2015,08,29,06,26,19.30
2015,08,29,06,27,14.50
2015,08,29,06,28,11.30
2015,08,29,06,29,11.30
2015,08,29,06,30,11.30
2015,08,29,06,31,9.60
2015,08,29,06,32,8.10
2015,08,29,06,33,11.30
2015,08,29,06,34,12.90
2015,08,29,06,35,14.50
2015,08,29,06,36,20.90
2015,08,29,06,37,11.30
2015,08,29,06,38,22.50
2015,08,29,06,39,12.90
2015,08,29,06,40,4.80
2015,08,29,06,41,4.80
2015,08,29,06,42,1.60
2015,08,29,06,43,3.20
2015,08,29,06,44,3.20
2015,08,29,06,45,4.80
2015,08,29,06,46,3.20
2015,08,29,06,47,4.80
2015,08,29,06,48,3.20
2015,08,29,06,49,6.40
2015,08,29,06,50,8.10
2015,08,29,06,51,8.10
2015,08,29,06,52,4.80
2015,08,29,06,53,1.60
2015,08,29,06,54,1.60
2015,08,29,06,55,4.80
2015,08,29,06,56,6.40
2015,08,29,06,57,9.60
2015,08,29,06,58,6.40
2015,08,29,06,59,3.20
2015,08,29,07,00,1.60
2015,08,29,07,01,1.60
2015,08,29,07,02,3.20
2015,08,29,07,03,3.20
2015,08,29,07,04,4.80
2015,08,29,07,05,4.80
2015,08,29,07,06,4.80
2015,08,29,07,07,3.20
2015,08,29,07,08,3.20
2015,08,29,07,09,3.20
2015,08,29,07,10,1.60
2015,08,29,07,11,3.20
2015,08,29,07,12,1.60
2015,08,29,07,13,3.20
2015,08,29,07,14,6.40
2015,08,29,07,15,8.10
2015,08,29,07,16,8.10
2015,08,29,07,17,11.30
2015,08,29,07,18,11.30
2015,08,29,07,19,6.40
2015,08,29,07,20,4.80
2015,08,29,07,21,6.40
2015,08,29,07,22,6.40
2015,08,29,07,23,8.10
2015,08,29,07,24,8.10
2015,08,29,07,25,6.40
2015,08,29,07,26,3.20
2015,08,29,07,27,3.20
2015,08,29,07,28,16.10
2015,08,29,07,29,12.90
2015,08,29,07,30,4.80
2015,08,29,07,31,6.40
2015,08,29,07,32,1.60
2015,08,29,07,33,11.30
2015,08,29,07,34,11.30
2015,08,29,07,35,14.50
2015,08,29,07,36,9.60
2015,08,29,07,37,9.60
2015,08,29,07,38,9.60
2015,08,29,07,39,4.80
2015,08,29,07,40,11.30
2015,08,29,07,41,11.30
2015,08,29,07,42,9.60
2015,08,29,07,43,11.30
2015,08,29,07,44,12.90
2015,08,29,07,45,9.60
2015,08,29,07,46,12.90
2015,08,29,07,47,12.90
2015,08,29,07,48,14.50
2015,08,29,07,49,9.60
2015,08,29,07,50,9.60
2015,08,29,07,51,9.60
2015,08,29,07,52,8.10
2015,08,29,07,53,8.10
2015,08,29,07,54,17.70
2015,08,29,07,55,12.90
2015,08,29,07,56,14.50
2015,08,29,07,57,9.60
2015,08,29,07,58,14.50
2015,08,29,07,59,20.90
2015,08,29,08,00,22.50
2015,08,29,08,01,11.30
2015,08,29,08,02,16.10
2015,08,29,08,03,20.90
2015,08,29,08,04,14.50
2015,08,29,08,05,22.50
2015,08,29,08,06,19.30
2015,08,29,08,07,12.90
2015,08,29,08,08,17.70
2015,08,29,08,09,24.20
2015,08,29,08,10,14.50
2015,08,29,08,11,17.70
2015,08,29,08,12,12.90
2015,08,29,08,13,12.90
2015,08,29,08,14,11.30
2015,08,29,08,15,6.40
2015,08,29,08,16,19.30
2015,08,29,08,17,17.70
2015,08,29,08,18,14.50
2015,08,29,08,19,9.60
2015,08,29,08,20,16.10
2015,08,29,08,21,16.10
2015,08,29,08,22,20.90
2015,08,29,08,23,12.90
2015,08,29,08,24,9.60
2015,08,29,08,25,8.10
2015,08,29,08,26,11.30
2015,08,29,08,27,22.50
2015,08,29,08,28,20.90
2015,08,29,08,29,22.50
2015,08,29,08,30,17.70
2015,08,29,08,31,17.70
2015,08,29,08,32,12.90
2015,08,29,08,33,11.30
2015,08,29,08,34,8.10
2015,08,29,08,35,11.30
2015,08,29,08,36,6.40
2015,08,29,08,37,14.50
2015,08,29,08,38,20.90
2015,08,29,08,39,17.70
2015,08,29,08,40,11.30
2015,08,29,08,41,8.10
2015,08,29,08,42,9.60
2015,08,29,08,43,11.30
2015,08,29,08,44,8.10
2015,08,29,08,45,12.90
2015,08,29,08,46,11.30
2015,08,29,08,47,12.90
2015,08,29,08,48,11.30
2015,08,29,08,49,11.30
2015,08,29,08,50,14.50
2015,08,29,08,51,14.50
2015,08,29,08,52,14.50
2015,08,29,08,53,12.90
2015,08,29,08,54,11.30
2015,08,29,08,55,11.30
2015,08,29,08,56,19.30
2015,08,29,08,57,6.40
2015,08,29,08,58,8.10
2015,08,29,08,59,6.40
2015,08,29,09,00,9.60
2015,08,29,09,01,8.10
2015,08,29,09,02,6.40
2015,08,29,09,03,6.40
2015,08,29,09,04,19.30
2015,08,29,09,05,14.50
2015,08,29,09,06,9.60
2015,08,29,09,07,6.40
2015,08,29,09,08,3.20
2015,08,29,09,09,8.10
2015,08,29,09,10,6.40
2015,08,29,09,11,3.20
2015,08,29,09,12,8.10
2015,08,29,09,13,8.10
2015,08,29,09,14,6.40
2015,08,29,09,15,14.50
2015,08,29,09,16,3.20
2015,08,29,09,17,9.60
2015,08,29,09,18,3.20
2015,08,29,09,19,3.20
2015,08,29,09,20,6.40
2015,08,29,09,21,14.50
2015,08,29,09,22,8.10
2015,08,29,09,23,6.40
2015,08,29,09,24,8.10
2015,08,29,09,25,3.20
2015,08,29,09,26,9.60
2015,08,29,09,27,16.10
2015,08,29,09,28,14.50
2015,08,29,09,29,12.90
2015,08,29,09,30,4.80
2015,08,29,09,31,3.20
2015,08,29,09,32,3.20
2015,08,29,09,33,14.50
2015,08,29,09,34,8.10
2015,08,29,09,35,6.40
2015,08,29,09,36,8.10
2015,08,29,09,37,11.30
2015,08,29,09,38,9.60
2015,08,29,09,39,11.30
2015,08,29,09,40,12.90
2015,08,29,09,41,8.10
2015,08,29,09,42,6.40
2015,08,29,09,43,8.10
2015,08,29,09,44,16.10
2015,08,29,09,45,16.10
2015,08,29,09,46,11.30
2015,08,29,09,47,12.90
2015,08,29,09,48,12.90
2015,08,29,09,49,8.10
2015,08,29,09,50,8.10
2015,08,29,09,51,8.10
2015,08,29,09,52,9.60
2015,08,29,09,53,9.60
2015,08,29,09,54,12.90
2015,08,29,09,55,6.40
2015,08,29,09,56,16.10
2015,08,29,09,57,14.50
2015,08,29,09,58,8.10
2015,08,29,09,59,17.70
2015,08,29,10,00,4.80
2015,08,29,10,01,3.20
2015,08,29,10,02,6.40
2015,08,29,10,03,8.10
2015,08,29,10,04,8.10
2015,08,29,10,05,11.30
2015,08,29,10,06,8.10
2015,08,29,10,07,9.60
2015,08,29,10,08,6.40
2015,08,29,10,09,6.40
2015,08,29,10,10,9.60
2015,08,29,10,11,12.90
2015,08,29,10,12,6.40
2015,08,29,10,13,3.20
2015,08,29,10,14,6.40
2015,08,29,10,15,6.40
2015,08,29,10,16,11.30
2015,08,29,10,17,9.60
2015,08,29,10,18,8.10
2015,08,29,10,19,14.50
2015,08,29,10,20,14.50
2015,08,29,10,21,11.30
2015,08,29,10,22,6.40
2015,08,29,10,23,9.60
2015,08,29,10,24,12.90
2015,08,29,10,25,11.30
2015,08,29,10,26,3.20
2015,08,29,10,27,8.10
2015,08,29,10,28,3.20
2015,08,29,10,29,8.10
2015,08,29,10,30,8.10
2015,08,29,10,31,8.10
2015,08,29,10,32,6.40
2015,08,29,10,33,14.50
2015,08,29,10,34,11.30
2015,08,29,10,35,11.30
2015,08,29,10,36,9.60
2015,08,29,10,37,8.10
2015,08,29,10,38,9.60
2015,08,29,10,39,8.10
2015,08,29,10,40,6.40
2015,08,29,10,41,3.20
2015,08,29,10,42,6.40
2015,08,29,10,43,6.40
2015,08,29,10,44,9.60
2015,08,29,10,45,9.60
2015,08,29,10,46,9.60
2015,08,29,10,47,6.40
2015,08,29,10,48,8.10
2015,08,29,10,49,6.40
2015,08,29,10,50,9.60
2015,08,29,10,51,6.40
2015,08,29,10,52,8.10
2015,08,29,10,53,9.60
2015,08,29,10,54,14.50
2015,08,29,10,55,8.10
2015,08,29,10,56,8.10
2015,08,29,10,57,3.20
2015,08,29,10,58,19.30
2015,08,29,10,59,12.90
2015,08,29,11,00,9.60
2015,08,29,11,01,19.30
2015,08,29,11,02,12.90
2015,08,29,11,03,12.90
2015,08,29,11,04,22.50
2015,08,29,11,05,9.60
2015,08,29,11,06,9.60
2015,08,29,11,07,20.90
2015,08,29,11,08,8.10
2015,08,29,11,09,17.70
2015,08,29,11,10,8.10
2015,08,29,11,11,8.10
2015,08,29,11,12,11.30
2015,08,29,11,13,17.70
2015,08,29,11,14,4.80
2015,08,29,11,15,9.60
2015,08,29,11,16,9.60
2015,08,29,11,17,4.80
2015,08,29,11,18,11.30
2015,08,29,11,19,9.60
2015,08,29,11,20,9.60
2015,08,29,11,21,8.10
2015,08,29,11,22,6.40
2015,08,29,11,23,8.10
2015,08,29,11,24,11.30
2015,08,29,11,25,9.60
2015,08,29,11,26,11.30
2015,08,29,11,27,8.10
2015,08,29,11,28,6.40
2015,08,29,11,29,6.40
2015,08,29,11,30,4.80
2015,08,29,11,31,9.60
2015,08,29,11,32,8.10
2015,08,29,11,33,19.30
2015,08,29,11,34,8.10
2015,08,29,11,35,3.20
2015,08,29,11,36,3.20
2015,08,29,11,37,3.20
2015,08,29,11,38,3.20
2015,08,29,11,39,3.20
2015,08,29,11,40,9.60
2015,08,29,11,41,6.40
2015,08,29,11,42,3.20
2015,08,29,11,43,1.60
2015,08,29,11,44,1.60
2015,08,29,11,45,6.40
2015,08,29,11,46,8.10
2015,08,29,11,47,6.40
2015,08,29,11,48,6.40
2015,08,29,11,49,9.60
2015,08,29,11,50,8.10
2015,08,29,11,51,30.60
2015,08,29,11,52,24.20
2015,08,29,11,53,27.40
2015,08,29,11,54,20.90
2015,08,29,11,55,17.70
2015,08,29,11,56,11.30
2015,08,29,11,57,16.10
2015,08,29,11,58,9.60
2015,08,29,11,59,14.50
2015,08,29,12,00,19.30
2015,08,29,12,01,22.50
2015,08,29,12,02,25.70
2015,08,29,12,03,12.90
2015,08,29,12,04,14.50
2015,08,29,12,05,20.90
2015,08,29,12,06,8.10
2015,08,29,12,07,22.50
2015,08,29,12,08,19.30
2015,08,29,12,09,29.00
2015,08,29,12,10,17.70
2015,08,29,12,11,27.40
2015,08,29,12,12,25.70
2015,08,29,12,13,27.40
2015,08,29,12,14,14.50
2015,08,29,12,15,35.40
2015,08,29,12,16,22.50
2015,08,29,12,17,22.50
2015,08,29,12,18,17.70
2015,08,29,12,19,19.30
2015,08,29,12,20,17.70
2015,08,29,12,21,17.70
2015,08,29,12,22,27.40
2015,08,29,12,23,27.40
2015,08,29,12,24,16.10
2015,08,29,12,25,22.50
2015,08,29,12,26,20.90
2015,08,29,12,27,29.00
2015,08,29,12,28,30.60
2015,08,29,12,29,38.60
2015,08,29,12,30,30.60
2015,08,29,12,31,17.70
2015,08,29,12,32,11.30
2015,08,29,12,33,25.70
2015,08,29,12,34,35.40
2015,08,29,12,35,16.10
2015,08,29,12,36,25.70
2015,08,29,12,37,19.30
2015,08,29,12,38,25.70
2015,08,29,12,39,24.20
2015,08,29,12,40,22.50
2015,08,29,12,41,20.90
2015,08,29,12,42,33.80
2015,08,29,12,43,30.60
2015,08,29,12,44,27.40
2015,08,29,12,45,16.10
2015,08,29,12,46,19.30
2015,08,29,12,47,9.60
2015,08,29,12,48,16.10
2015,08,29,12,49,19.30
2015,08,29,12,50,22.50
2015,08,29,12,51,41.80
2015,08,29,12,52,20.90
2015,08,29,12,53,22.50
2015,08,29,12,54,11.30
2015,08,29,12,55,22.50
2015,08,29,12,56,24.20
2015,08,29,12,57,22.50
2015,08,29,12,58,22.50
2015,08,29,12,59,27.40
2015,08,29,13,00,25.70
2015,08,29,13,01,22.50
2015,08,29,13,02,11.30
2015,08,29,13,03,24.20
2015,08,29,13,04,17.70
2015,08,29,13,05,20.90
2015,08,29,13,06,32.20
2015,08,29,13,07,19.30
2015,08,29,13,08,11.30
2015,08,29,13,09,12.90
2015,08,29,13,10,22.50
2015,08,29,13,11,19.30
2015,08,29,13,12,14.50
2015,08,29,13,13,9.60
2015,08,29,13,14,29.00
2015,08,29,13,15,17.70
2015,08,29,13,16,11.30
2015,08,29,13,17,11.30
2015,08,29,13,18,6.40
2015,08,29,13,19,16.10
2015,08,29,13,20,16.10
2015,08,29,13,21,22.50
2015,08,29,13,22,11.30
2015,08,29,13,23,9.60
2015,08,29,13,24,9.60
2015,08,29,13,25,12.90
2015,08,29,13,26,16.10
2015,08,29,13,27,24.20
2015,08,29,13,28,12.90
2015,08,29,13,29,14.50
2015,08,29,13,30,17.70
2015,08,29,13,31,16.10
2015,08,29,13,32,20.90
2015,08,29,13,33,22.50
2015,08,29,13,34,29.00
2015,08,29,13,35,11.30
2015,08,29,13,36,17.70
2015,08,29,13,37,12.90
2015,08,29,13,38,20.90
2015,08,29,13,39,19.30
2015,08,29,13,40,19.30
2015,08,29,13,41,24.20
2015,08,29,13,42,22.50
2015,08,29,13,43,19.30
2015,08,29,13,44,14.50
2015,08,29,13,45,20.90
2015,08,29,13,46,11.30
2015,08,29,13,47,20.90
2015,08,29,13,48,32.20
2015,08,29,13,49,24.20
2015,08,29,13,50,24.20
2015,08,29,13,51,30.60
2015,08,29,13,52,30.60
2015,08,29,13,53,24.20
2015,08,29,13,54,22.50
2015,08,29,13,55,24.20
2015,08,29,13,56,30.60
2015,08,29,13,57,20.90
2015,08,29,13,58,19.30
2015,08,29,13,59,12.90
2015,08,29,14,00,20.90
2015,08,29,14,01,24.20
2015,08,29,14,02,17.70
2015,08,29,14,03,11.30
2015,08,29,14,04,6.40
2015,08,29,14,05,9.60
2015,08,29,14,06,12.90
2015,08,29,14,07,8.10
2015,08,29,14,08,8.10
2015,08,29,14,09,9.60
2015,08,29,14,10,6.40
2015,08,29,14,11,9.60
2015,08,29,14,12,8.10
2015,08,29,14,13,11.30
2015,08,29,14,14,8.10
2015,08,29,14,15,8.10
2015,08,29,14,16,11.30
2015,08,29,14,17,9.60
2015,08,29,14,18,19.30
2015,08,29,14,19,9.60
2015,08,29,14,20,8.10
2015,08,29,14,21,8.10
2015,08,29,14,22,6.40
2015,08,29,14,23,9.60
2015,08,29,14,24,8.10
2015,08,29,14,25,8.10
2015,08,29,14,26,8.10
2015,08,29,14,27,12.90
2015,08,29,14,28,9.60
2015,08,29,14,29,11.30
2015,08,29,14,30,9.60
2015,08,29,14,31,17.70
2015,08,29,14,32,22.50
2015,08,29,14,33,11.30
2015,08,29,14,34,9.60
2015,08,29,14,35,9.60
2015,08,29,14,36,17.70
2015,08,29,14,37,16.10
2015,08,29,14,38,20.90
2015,08,29,14,39,11.30
2015,08,29,14,40,8.10
2015,08,29,14,41,8.10
2015,08,29,14,42,8.10
2015,08,29,14,43,8.10
2015,08,29,14,44,8.10
2015,08,29,14,45,12.90
2015,08,29,14,46,9.60
2015,08,29,14,47,9.60
2015,08,29,14,48,9.60
2015,08,29,14,49,24.20
2015,08,29,14,50,24.20
2015,08,29,14,51,14.50
2015,08,29,14,52,8.10
2015,08,29,14,53,9.60
2015,08,29,14,54,12.90
2015,08,29,14,55,9.60
2015,08,29,14,56,8.10
2015,08,29,14,57,14.50
2015,08,29,14,58,20.90
2015,08,29,14,59,17.70
2015,08,29,15,00,9.60
2015,08,29,15,01,11.30
2015,08,29,15,02,8.10
2015,08,29,15,03,6.40
2015,08,29,15,04,22.50
2015,08,29,15,05,22.50
2015,08,29,15,06,16.10
2015,08,29,15,07,8.10
2015,08,29,15,08,8.10
2015,08,29,15,09,11.30
2015,08,29,15,10,12.90
2015,08,29,15,11,8.10
2015,08,29,15,12,17.70
2015,08,29,15,13,14.50
2015,08,29,15,14,22.50
2015,08,29,15,15,22.50
2015,08,29,15,16,20.90
2015,08,29,15,17,6.40
2015,08,29,15,18,11.30
2015,08,29,15,19,6.40
2015,08,29,15,20,30.60
2015,08,29,15,21,16.10
2015,08,29,15,22,8.10
2015,08,29,15,23,9.60
2015,08,29,15,24,8.10
2015,08,29,15,25,12.90
2015,08,29,15,26,20.90
2015,08,29,15,27,37.00
2015,08,29,15,28,27.40
2015,08,29,15,29,11.30
2015,08,29,15,30,11.30
2015,08,29,15,31,6.40
2015,08,29,15,32,32.20
2015,08,29,15,33,22.50
2015,08,29,15,34,19.30
2015,08,29,15,35,16.10
2015,08,29,15,36,16.10
2015,08,29,15,37,3.20
2015,08,29,15,38,9.60
2015,08,29,15,39,11.30
2015,08,29,15,40,17.70
2015,08,29,15,41,9.60
2015,08,29,15,42,9.60
2015,08,29,15,43,4.80
2015,08,29,15,44,8.10
2015,08,29,15,45,6.40
2015,08,29,15,46,8.10
2015,08,29,15,47,4.80
2015,08,29,15,48,1.60
2015,08,29,15,49,6.40
2015,08,29,15,50,8.10
2015,08,29,15,51,6.40
2015,08,29,15,52,9.60
2015,08,29,15,53,12.90
2015,08,29,15,54,9.60
2015,08,29,15,55,8.10
2015,08,29,15,56,8.10
2015,08,29,15,57,9.60
2015,08,29,15,58,9.60
2015,08,29,15,59,8.10
2015,08,29,16,00,4.80
2015,08,29,16,01,6.40
2015,08,29,16,02,12.90
2015,08,29,16,03,9.60
2015,08,29,16,04,6.40
2015,08,29,16,05,8.10
2015,08,29,16,06,12.90
2015,08,29,16,07,4.80
2015,08,29,16,08,4.80
2015,08,29,16,09,8.10
2015,08,29,16,10,6.40
2015,08,29,16,11,8.10
2015,08,29,16,12,4.80
2015,08,29,16,13,8.10
2015,08,29,16,14,19.30
2015,08,29,16,15,17.70
2015,08,29,16,16,12.90
2015,08,29,16,17,11.30
2015,08,29,16,18,20.90
2015,08,29,16,19,12.90
2015,08,29,16,20,14.50
2015,08,29,16,21,19.30
2015,08,29,16,22,12.90
2015,08,29,16,23,12.90
2015,08,29,16,24,19.30
2015,08,29,16,25,22.50
2015,08,29,16,26,22.50
2015,08,29,16,27,22.50
2015,08,29,16,28,11.30
2015,08,29,16,29,9.60
2015,08,29,16,30,9.60
2015,08,29,16,31,12.90
2015,08,29,16,32,8.10
2015,08,29,16,33,6.40
2015,08,29,16,34,6.40
2015,08,29,16,35,6.40
2015,08,29,16,36,11.30
2015,08,29,16,37,11.30
2015,08,29,16,38,11.30
2015,08,29,16,39,9.60
2015,08,29,16,40,16.10
2015,08,29,16,41,11.30
2015,08,29,16,42,9.60
2015,08,29,16,43,9.60
2015,08,29,16,44,8.10
2015,08,29,16,45,11.30
2015,08,29,16,46,8.10
2015,08,29,16,47,8.10
2015,08,29,16,48,9.60
2015,08,29,16,49,8.10
2015,08,29,16,50,12.90
2015,08,29,16,51,11.30
2015,08,29,16,52,9.60
2015,08,29,16,53,9.60
2015,08,29,16,54,8.10
2015,08,29,16,55,6.40
2015,08,29,16,56,1.60
2015,08,29,16,57,6.40
2015,08,29,16,58,6.40
2015,08,29,16,59,3.20
2015,08,29,17,00,1.60
2015,08,29,17,01,3.20
2015,08,29,17,02,8.10
2015,08,29,17,03,8.10
2015,08,29,17,04,9.60
2015,08,29,17,05,9.60
2015,08,29,17,06,3.20
2015,08,29,17,07,3.20
2015,08,29,17,08,4.80
2015,08,29,17,09,8.10
2015,08,29,17,10,9.60
2015,08,29,17,11,8.10
2015,08,29,17,12,4.80
2015,08,29,17,13,8.10
2015,08,29,17,14,6.40
2015,08,29,17,15,4.80
2015,08,29,17,16,8.10
2015,08,29,17,17,8.10
2015,08,29,17,18,9.60
2015,08,29,17,19,12.90
2015,08,29,17,20,8.10
2015,08,29,17,21,3.20
2015,08,29,17,22,6.40
2015,08,29,17,23,6.40
2015,08,29,17,24,6.40
2015,08,29,17,25,6.40
2015,08,29,17,26,1.60
2015,08,29,17,27,3.20
2015,08,29,17,28,3.20
2015,08,29,17,29,1.60
2015,08,29,17,30,1.60
2015,08,29,17,31,3.20
2015,08,29,17,32,4.80
2015,08,29,17,33,4.80
2015,08,29,17,34,6.40
2015,08,29,17,35,6.40
2015,08,29,17,36,6.40
2015,08,29,17,37,3.20
2015,08,29,17,38,6.40
2015,08,29,17,39,8.10
2015,08,29,17,40,8.10
2015,08,29,17,41,6.40
2015,08,29,17,42,3.20
2015,08,29,17,43,1.60
2015,08,29,17,44,3.20
2015,08,29,17,45,3.20
2015,08,29,17,46,8.10
2015,08,29,17,47,8.10
2015,08,29,17,48,3.20
2015,08,29,17,49,6.40
2015,08,29,17,50,6.40
2015,08,29,17,51,8.10
2015,08,29,17,52,6.40
2015,08,29,17,53,12.90
2015,08,29,17,54,6.40
2015,08,29,17,55,6.40
2015,08,29,17,56,6.40
2015,08,29,17,57,6.40
2015,08,29,17,58,4.80
2015,08,29,17,59,3.20
2015,08,29,18,00,4.80
2015,08,29,18,01,6.40
2015,08,29,18,02,17.70
2015,08,29,18,03,11.30
2015,08,29,18,04,9.60
2015,08,29,18,05,8.10
2015,08,29,18,06,3.20
2015,08,29,18,07,6.40
2015,08,29,18,08,9.60
2015,08,29,18,09,8.10
2015,08,29,18,10,4.80
2015,08,29,18,11,12.90
2015,08,29,18,12,8.10
2015,08,29,18,13,12.90
2015,08,29,18,14,16.10
2015,08,29,18,15,17.70
2015,08,29,18,16,12.90
2015,08,29,18,17,8.10
2015,08,29,18,18,22.50
2015,08,29,18,19,9.60
2015,08,29,18,20,8.10
2015,08,29,18,21,14.50
2015,08,29,18,22,8.10
2015,08,29,18,23,4.80
2015,08,29,18,24,14.50
2015,08,29,18,25,9.60
2015,08,29,18,26,25.70
2015,08,29,18,27,9.60
2015,08,29,18,28,11.30
2015,08,29,18,29,11.30
2015,08,29,18,30,12.90
2015,08,29,18,31,9.60
2015,08,29,18,32,6.40
2015,08,29,18,33,6.40
2015,08,29,18,34,9.60